DW8785 Weather Reports


Display with metric or nautical units.
time (UTC)temp
F
wind
direction
speed
MPH
gust
MPH
rain 1hr
in
rain 24hr
in
rain mn
in
humidity
%
barometer
mb
20260507171538 59 284 9.0 0.0 0.00 0.00 0.00 58 1010.4
20260507170035 60 285 8.0 0.0 0.00 0.00 0.00 59 1010.6
20260507164529 60 359 8.0 0.0 0.00 0.00 0.00 58 1010.2
20260507163025 60 280 9.0 0.0 0.00 0.00 0.00 59 1010.2
20260507161520 60 189 8.0 0.0 0.00 0.00 0.00 57 1010.3
20260507160017 60 359 9.0 0.0 0.00 0.00 0.00 57 1010.3
20260507154513 60 196 9.0 0.0 0.00 0.00 0.00 59 1010.4
20260507153007 60 357 8.0 0.0 0.00 0.00 0.00 59 1010.4
20260507151502 60 168 6.0 0.0 0.00 0.00 0.00 58 1010.6
20260507150100 60 196 10.0 0.0 0.00 0.00 0.00 60 1010.6
20260507144558 60 357 12.0 0.0 0.00 0.00 0.00 60 1010.6
20260507143049 59 196 13.0 0.0 0.00 0.00 0.00 63 1010.6
20260507141552 60 357 10.0 0.0 0.00 0.00 0.00 61 1010.5
20260507134537 59 189 15.0 0.0 0.00 0.00 0.00 58 1010.4
20260507133034 61 240 13.0 0.0 0.00 0.00 0.00 60 1010.3
20260507131528 59 186 16.0 0.0 0.00 0.00 0.00 60 1010.5
20260507130024 60 186 13.0 0.0 0.00 0.00 0.00 60 1010.5
20260507124523 60 184 13.0 0.0 0.00 0.00 0.00 61 1010.6
20260507123015 59 357 13.0 0.0 0.00 0.00 0.00 61 1010.5
20260507121510 60 357 14.0 0.0 0.00 0.00 0.00 67 1010.6
20260507120006 60 174 13.0 0.0 0.00 0.00 0.00 63 1010.9
20260507114502 59 169 11.0 0.0 0.00 0.00 0.00 60 1011.0
20260507113100 60 353 10.0 0.0 0.00 0.00 0.00 62 1011.0
20260507111553 59 271 10.0 0.0 0.00 0.00 0.00 60 1011.2
20260507110049 59 289 8.0 0.0 0.00 0.00 0.00 57 1010.9
20260507104545 59 357 9.0 0.0 0.00 0.00 0.00 56 1011.3
20260507103038 58 182 7.0 0.0 0.00 0.00 0.00 55 1011.3
20260507101539 57 280 10.0 0.0 0.00 0.00 0.00 57 1011.5
20260507100033 57 281 11.0 0.0 0.00 0.00 0.00 59 1011.3
20260507094526 57 280 8.0 0.0 0.00 0.00 0.00 61 1011.6
20260507093034 56 359 11.0 0.0 0.00 0.00 0.00 61 1011.5
20260507091516 56 359 10.0 0.0 0.00 0.00 0.00 66 1011.5
20260507090014 55 359 9.0 0.0 0.00 0.00 0.00 68 1011.4
20260507084506 55 281 12.0 0.0 0.00 0.00 0.00 69 1011.5
20260507083104 54 188 15.0 0.0 0.00 0.00 0.00 69 1011.4
20260507081556 54 357 14.0 0.0 0.00 0.00 0.00 71 1011.2
20260507080116 53 277 13.0 0.0 0.00 0.00 0.00 73 1011.0
20260507074556 53 280 11.0 0.0 0.00 0.00 0.00 71 1010.9
20260507073042 53 280 13.0 0.0 0.00 0.00 0.00 70 1010.9
20260507071553 53 357 13.0 0.0 0.00 0.00 0.00 71 1010.9
20260507070035 52 359 17.0 0.0 0.00 0.00 0.00 72 1010.4
20260507064527 51 281 16.0 0.0 0.00 0.00 0.00 73 1010.6
20260507063024 51 280 15.0 0.0 0.00 0.00 0.00 69 1010.5
20260507061518 51 277 15.0 0.0 0.00 0.00 0.00 69 1010.5
20260507060018 51 281 13.0 0.0 0.00 0.00 0.00 67 1010.5
20260507054509 50 359 13.0 0.0 0.00 0.00 0.00 70 1010.4
20260507053003 50 357 16.0 0.0 0.00 0.00 0.00 72 1010.2
20260507051601 50 359 20.0 0.0 0.00 0.00 0.00 69 1010.0
20260507050055 49 357 17.0 0.0 0.00 0.00 0.00 77 1010.1
20260507044551 48 281 14.0 0.0 0.00 0.00 0.00 80 1010.2
20260507043044 49 277 16.0 0.0 0.00 0.00 0.00 76 1010.0
20260507041540 49 288 10.0 0.0 0.00 0.00 0.00 74 1009.9
20260507040040 49 261 8.0 0.0 0.00 0.00 0.00 74 1010.0
20260507034532 49 357 8.0 0.0 0.00 0.00 0.00 75 1010.0
20260507033027 49 285 9.0 0.0 0.00 0.00 0.00 74 1009.7
20260507031523 49 299 5.0 0.0 0.00 0.00 0.00 74 1009.7
20260507030019 49 299 6.0 0.0 0.00 0.00 0.00 77 1009.3
20260507024515 49 315 3.0 0.0 0.00 0.00 0.00 77 1009.2
20260507023009 50 0 2.0 0.0 0.00 0.00 0.00 76 1009.2
20260507021511 50 357 12.0 0.0 0.00 0.00 0.00 74 1009.1
20260507020002 50 281 16.0 0.0 0.00 0.00 0.00 75 1009.1
20260507014608 50 199 14.0 0.0 0.00 0.00 0.00 80 1009.2
20260507013053 49 188 19.0 0.0 0.00 0.00 0.00 83 1009.1
20260507011600 49 278 18.0 0.0 0.00 0.00 0.00 83 1009.1
20260507010045 50 280 18.0 0.0 0.00 0.00 0.00 81 1008.3
20260507004541 50 282 17.0 0.0 0.00 0.00 0.00 80 1008.7
20260507003035 50 356 18.0 0.0 0.00 0.00 0.00 81 1008.8
20260507001541 49 356 14.0 0.0 0.00 0.00 0.00 84 1009.2
20260507000027 49 285 15.0 0.0 0.00 0.00 0.00 84 1009.4
20260506234530 50 357 18.0 0.0 0.00 0.00 0.00 77 1009.3
20260506233018 51 357 18.0 0.0 0.00 0.00 0.00 76 1009.6
20260506231514 50 275 14.0 0.0 0.00 0.00 0.00 80 1009.3
20260506230011 50 302 16.0 0.0 0.00 0.00 0.00 80 1009.5
20260506224507 49 282 14.0 0.0 0.00 0.00 0.00 88 1009.8
20260506223101 49 353 12.0 0.0 0.00 0.00 0.00 89 1009.7
20260506221556 48 198 11.0 0.0 0.00 0.00 0.00 96 1009.8
20260506214548 48 353 10.0 0.0 0.00 0.00 2.14 98 1009.8
20260506213045 49 188 9.0 0.0 0.00 0.00 2.14 97 1009.9
20260506211540 49 186 8.0 0.0 0.00 0.00 2.14 96 1010.1
20260506210036 50 189 8.0 0.0 0.00 0.00 2.14 93 1010.0
20260506204534 50 356 11.0 0.0 0.00 0.00 2.14 89 1009.6
20260506203034 51 356 14.0 0.0 0.00 0.00 2.14 84 1009.6
20260506201524 51 354 13.0 0.0 0.00 0.00 2.14 87 1009.5
20260506200024 51 354 13.0 0.0 0.00 0.00 2.14 88 1009.2
20260506194516 52 354 15.0 0.0 0.00 0.00 2.14 85 1009.1
20260506193010 52 189 15.0 0.0 0.00 0.00 2.14 84 1008.6
20260506191507 52 353 16.0 0.0 0.00 0.00 2.14 83 1008.3
20260506190004 52 352 13.0 0.0 0.00 0.00 2.14 85 1008.1
20260506184602 52 353 11.0 0.0 0.00 0.00 2.14 87 1008.1
20260506183059 53 352 10.0 0.0 0.00 0.00 2.14 87 1008.0
20260506181556 53 340 11.0 0.0 0.00 0.00 2.14 89 1008.0
20260506180047 53 272 13.0 0.0 0.00 0.00 2.14 89 1008.0
20260506174544 53 285 11.0 0.0 0.00 0.00 2.14 91 1007.8
20260506173047 53 352 10.0 0.0 0.00 0.00 2.14 92 1008.0